Location: Drummondville
(45.8830°N, 72.4830°W)
Time: 04:36:15
(UTC-04:00)

Tiangong 2 - Visible Passes

Search period start: 16 August 2018 00:00
Search period end: 26 August 2018 00:00
Orbit: 384 x 395 km, 42.8° (Epoch: 15 August)

Date Brightness Start Highest point End Pass type
(mag) Time Alt. Az. Time Alt. Az. Time Alt. Az.
17 Aug 3.7 04:25:30 10° SSE 04:26:11 11° SSE 04:26:53 10° SE visible
18 Aug 2.7 05:02:08 10° SW 05:04:43 24° SSE 05:07:22 10° ESE visible
19 Aug 3.1 04:06:56 17° SSE 04:07:02 17° SSE 04:09:13 10° ESE visible
20 Aug 2.1 04:44:02 20° SW 04:45:40 33° SSE 04:48:36 10° E visible
21 Aug 2.9 03:48:48 22° SE 03:48:48 22° SE 03:50:38 10° ESE visible
21 Aug 1.6 05:21:21 10° WSW 05:24:27 47° S 05:27:33 10° ESE visible
22 Aug 1.7 04:25:53 35° SSW 04:26:39 42° S 04:29:41 10° E visible
23 Aug 3.4 03:30:41 18° ESE 03:30:41 18° ESE 03:31:48 10° E visible
23 Aug 1.5 05:03:00 15° WSW 05:05:26 47° S 05:08:32 10° ESE visible
24 Aug 1.5 04:07:51 46° SSE 04:07:51 46° SSE 04:10:44 10° ESE visible
25 Aug 4.2 03:12:45 11° E 03:12:45 11° E 03:12:51 10° E visible
25 Aug 1.6 04:45:05 26° WSW 04:46:24 41° S 04:49:27 10° ESE visible
